Location: Windsor
(43.2292°N, 89.3015°W)
Time: 21:07:48
(UTC+00:00)

Transit 2A - All Passes

Search period start: 24 May 2022 00:00
Search period end: 03 June 2022 00:00
Orbit: 598 x 960 km, 66.7° (Epoch: 24 May)

Date Brightness Start Highest point End Pass type
(mag) Time Alt. Az. Time Alt. Az. Time Alt. Az.
24 May - 11:19:48 10° SSE 11:24:20 23° ESE 11:28:37 10° ENE daylight
24 May - 13:01:16 10° SW 13:07:12 62° NW 13:12:37 10° NNE daylight
24 May - 14:48:28 10° WNW 14:51:22 14° NW 14:54:09 10° N daylight
24 May - 20:05:19 10° N 20:08:52 21° NE 20:12:14 10° E daylight
24 May - 21:47:53 10° NW 21:52:22 53° WSW 21:56:36 10° SSE daylight
25 May - 10:46:53 10° SE 10:50:13 15° ESE 10:53:27 10° ENE daylight
25 May - 12:26:50 10° SSW 12:32:51 86° WNW 12:38:21 10° NNE daylight
25 May - 14:12:52 10° W 14:16:43 18° NW 14:20:23 10° N daylight
25 May - 19:31:28 10° N 19:34:15 15° NE 19:36:56 10° ENE daylight
25 May - 21:13:29 10° NNW 21:18:08 83° WSW 21:22:28 10° SSE daylight
26 May - 11:52:35 10° SSW 11:58:33 69° ESE 12:04:01 10° NE daylight
26 May - 13:37:33 10° W 13:42:10 24° NW 13:46:28 10° N daylight
26 May - 18:58:00 10° NNE 18:59:35 11° NNE 19:01:09 10° NE daylight
26 May - 20:39:12 10° NNW 20:43:48 64° ENE 20:48:08 10° SE daylight
26 May - 22:24:12 10° WNW 22:26:15 13° WSW 22:28:15 10° SW daylight
27 May - 11:18:33 10° S 11:24:17 48° ESE 11:29:35 10° NE daylight
27 May - 13:02:29 10° WSW 13:07:39 31° NW 13:12:24 10° NNE daylight
27 May - 20:04:59 10° NNW 20:09:25 42° NE 20:13:34 10° SE daylight
27 May - 21:48:52 10° WNW 21:52:11 20° WSW 21:55:23 10° SSW daylight
28 May - 10:44:46 10° S 10:50:04 34° ESE 10:55:00 10° NE daylight
28 May - 12:27:38 10° WSW 12:33:12 42° NW 12:38:18 10° NNE daylight
28 May - 14:17:16 10° NW 14:17:43 10° NNW 14:18:09 10° NNW daylight
28 May - 19:30:52 10° NNW 19:34:57 29° NE 19:38:49 10° ESE daylight
28 May - 21:14:03 10° NW 21:18:04 31° WSW 21:21:53 10° S daylight
29 May - 10:11:16 10° SSE 10:15:54 24° ESE 10:20:14 10° ENE daylight
29 May - 11:52:58 10° SW 11:58:48 58° NW 12:04:07 10° NNE daylight
29 May - 13:40:24 10° WNW 13:43:00 13° NW 13:45:29 10° N daylight
29 May - 18:56:50 10° N 19:00:26 21° NE 19:03:50 10° E daylight
29 May - 20:39:28 10° NW 20:43:52 49° WSW 20:48:02 10° S daylight
30 May - 09:38:15 10° SE 09:41:46 16° ESE 09:45:07 10° ENE visible
30 May - 11:18:28 10° SSW 11:24:26 81° WNW 11:29:52 10° NNE daylight
30 May - 13:04:42 10° W 13:08:20 17° NW 13:11:47 10° N daylight
30 May - 18:22:59 10° N 18:25:50 16° NE 18:28:35 10° ENE daylight
30 May - 20:05:03 10° NNW 20:09:38 78° WSW 20:13:57 10° SSE daylight
31 May - 09:06:35 10° ESE 09:07:41 11° ESE 09:08:46 10° E visible
31 May - 10:44:12 10° SSW 10:50:07 72° ESE 10:55:32 10° NE daylight
31 May - 12:29:20 10° W 12:33:45 22° NW 12:37:53 10° N daylight
31 May - 17:49:26 10° NNE 17:51:10 12° NE 17:52:52 10° ENE daylight
31 May - 19:30:44 10° NNW 19:35:18 69° NE 19:39:38 10° SE daylight
31 May - 21:16:03 10° W 21:17:43 12° WSW 21:19:21 10° SW daylight
01 Jun - 10:10:07 10° S 10:15:51 51° ESE 10:21:06 10° NE daylight
01 Jun - 11:54:13 10° WSW 11:59:14 30° NW 12:03:52 10° NNE daylight
01 Jun - 18:56:30 10° NNW 19:00:55 45° NE 19:05:06 10° SE daylight
01 Jun - 20:40:31 10° WNW 20:43:39 19° WSW 20:46:41 10° SSW daylight
02 Jun - 09:36:17 10° S 09:41:37 35° ESE 09:46:33 10° NE visible
02 Jun - 11:19:18 10° WSW 11:24:45 40° NW 11:29:45 10° NNE daylight
02 Jun - 18:22:22 10° NNW 18:26:29 31° NE 18:30:22 10° ESE daylight
02 Jun - 20:05:38 10° NW 20:09:31 29° WSW 20:13:15 10° S daylight
